Location: Vinland
(47.7731°N, 122.6974°W)
Time: 22:08:20
(UTC+00:00)

S-56A Canister/Altair - Pass Details

Date: 31 March 2023
Orbit: 639 x 2492 km, 38.9° (Epoch: 01 June)

Event Time Altitude Azimuth Distance (km) Brightness Sun altitude
Rises 07:15:02 0° 279° (W) 5,673 12.3 -36.5°
Reaches altitude 10° 07:19:00 10° 271° (W) 4,855 11.7 -36.7°
Enters shadow 07:28:54 33° 228° (SW) 3,588 10.6 -37.2°
